Location: Ab? ar R?sh Ba?r?
(24.1861°N, 32.8847°E)
Time: 23:50:19
(UTC+00:00)

Cosmos 2123 Rocket - Pass Details

Date: 24 October 2021
Orbit: 961 x 992 km, 82.9° (Epoch: 05 December)

Event Time Altitude Azimuth Distance (km) Brightness Sun altitude
Rises 16:14:55 0° 353° (N) 3,699 7.0 -14.4°
Reaches altitude 10° 16:17:27 10° 353° (N) 2,745 6.4 -15.0°
Maximum altitude 16:23:45 82° 266° (W) 993 4.1 -16.4°
Drops below altitude 10° 16:29:59 10° 180° (S) 2,714 6.4 -17.8°
Sets 16:32:28 0° 179° (S) 3,654 7.1 -18.4°
